Regional Weather Roundup
Issued by NWS

Home | Current Version | Previous Version | Text Only | Print | Product List | Glossary Off
Versions: 1 2 3 4 5 6 7 8 9 10 11 12 13 14 15 16 17 18 19 20 21 22 23 24 25 26 27 28 29 30 31 32 33 34 35 36 37 38 39 40 41 42 43 44 45 46 47 48 49 50

000
ASUS43 KLOT 311906
RWRIL

ILLINOIS REGIONAL WEATHER ROUNDUP
NATIONAL WEATHER SERVICE CHICAGO/ROMEOVILLE IL
100 PM CST SAT JAN 31 2015

NOTE: "FAIR" INDICATES FEW OR NO CLOUDS BELOW 12,000 FEET WITH NO
SIGNIFICANT WEATHER AND/OR OBSTRUCTIONS TO VISIBILITY.

* THESE STATIONS ARE NOT UNDER NWS QUALITY CONTROL. THEY ALSO MAY NOT
  REPORT WEATHER SUCH AS PRECIPITATION OR FOG.

ILZ001-002-007-009-015-016-024-312000-
NORTHWEST ILLINOIS

CITY           SKY/WX    TMP DP  RH WIND       PRES   REMARKS
MOLINE         CLOUDY    37  29  72 SW9       30.18F WCI  30
STERLING*        N/A    N/A N/A N/A MISG        N/A
SAVANNA*       CLOUDY    37  28  69 W3        30.16F
$$

ILZ003-004-008-010-011-017-018-312000-
NORTH CENTRAL ILLINOIS

CITY           SKY/WX    TMP DP  RH WIND       PRES   REMARKS
ROCKFORD       CLOUDY    36  24  62 W6        30.17F WCI  31
FREEPORT*      CLOUDY    33  25  70 W5        30.16F WCI  29
ROCHELLE*      CLOUDY    33  29  84 SW12      30.16F WCI  25
DE KALB*       CLOUDY    33  26  75 W12       30.16F WCI  24
PERU*          CLOUDY    38  30  72 SW9       30.19F WCI  32
$$

ILZ005-006-012>014-019>023-312000-
NORTHEAST ILLINOIS

CITY           SKY/WX    TMP DP  RH WIND       PRES   REMARKS
CHICAGO-OHARE  CLOUDY    35  23  61 W10       30.16F WCI  27
CHICAGO-MIDWAY CLOUDY    38  26  62 SW10      30.17F WCI  31
AURORA         CLOUDY    37  26  64 SW10      30.17F WCI  30
LANSING*       CLOUDY    37  26  63 SW13      30.19F WCI  29
JOLIET*        CLOUDY    37  26  67 W8        30.19F WCI  30
WAUKEGAN       PTSUNNY   36  22  56 W6        30.15F WCI  31
DUPAGE AIRPORT CLOUDY    35  26  69 SW10      30.16F WCI  27
KANKAKEE*      CLOUDY    37  29  74 SW8       30.21F WCI  30
WHEELING       PTSUNNY   36  23  59 W8        30.18F WCI  30
MORRIS*        CLOUDY    37  30  77 SW6       30.18F WCI  32
ROMEOVILLE*    CLOUDY    37  27  67 W13       30.18F WCI  28
NORTHERLY ISL    N/A     36  23  59 SW7         N/A  WCI  30
$$

LMZ740>746-312000-
SOUTHERN LAKE MICHIGAN

STATION/POSITION SKY/WX   TEMP    WIND        PRES    VSBY  WAVE
                          AIR SEA DIR/SP/G                  HT/PER
                          (F)     (DEG/KT/KT) (MB)    (MI)  (FT/S)
WAUKEGAN HARBOR            35     280/  9/ 13   N/A
HARRISON CRIB              35     230/  9/ 10   N/A
BURNHAM HARBOR             36     270/  6/ 13   N/A
CALUMET HARBOR             37     210/  8/ 14   N/A
MICHIGAN CITY              36     200/ 14/ 17   N/A
$$

ILZ025>027-034>036-040-047-049-050-058-095>099-312000-
WEST-CENTRAL ILLINOIS

CITY           SKY/WX    TMP DP  RH WIND       PRES   REMARKS
QUINCY         LGT RAIN  35  29  78 S7        30.23F WCI  29
GALESBURG*     CLOUDY    35  32  88 SW10G16   30.20F FOG     WCI  27
MACOMB*        LGT RAIN  36  32  86 SW8       30.24F WCI  29
JACKSONVILLE*  CLOUDY    40  27  59 S6        30.25F
PITTSFIELD*    CLOUDY    39  26  59 CALM      30.25F
$$

ILZ028>032-037-038-041>044-048-051>054-059>061-312000-
CENTRAL ILLINOIS

CITY           SKY/WX    TMP DP  RH WIND       PRES   REMARKS
PONTIAC        CLOUDY    38  31  74 SW9       30.21F WCI  32
BLOOMINGTON    CLOUDY    39  30  70 SW12      30.23F WCI  32
DECATUR        CLOUDY    37  27  67 SW12      30.26F WCI  29
PEORIA         CLOUDY    39  27  62 SW6       30.23F WCI  35
LACON*         CLOUDY    39  27  63 SW6       30.21F WCI  34
LINCOLN*       CLOUDY    40  28  60 SW7       30.26F
SPRINGFIELD    CLOUDY    39  26  59 SW9       30.26F WCI  33
TAYLORVILLE    CLOUDY    36  30  80 SW8       30.27F WCI  29
$$

ILZ033-039-045-046-055>057-062-063-312000-
EAST-CENTRAL ILLINOIS

CITY           SKY/WX    TMP DP  RH WIND       PRES   REMARKS
CHAMPAIGN      CLOUDY    38  28  67 SW13      30.25F WCI  30
DANVILLE*      CLOUDY    36  28  73 SW10      30.22F WCI  28
RANTOUL*       CLOUDY    39  30  69 SW10      30.23F WCI  33
MATTOON        CLOUDY    37  25  61 S9        30.26F WCI  30
PARIS*         CLOUDY    38  29  70 S10       30.28F WCI  31
$$

ILZ079-100>102-312000-
SOUTHWEST ILLINOIS

CITY           SKY/WX    TMP DP  RH WIND       PRES   REMARKS
BELLEVILLE     CLOUDY    43  27  53 S5        30.28F
CAHOKIA*       CLOUDY    44  25  47 CALM      30.27F
SPARTA*        CLOUDY    40  26  56 S5        30.30F
$$

ILZ064>066-069>071-074>076-080>082-084>086-088>090-092>094-312000-
SOUTH-CENTRAL ILLINOIS

CITY           SKY/WX    TMP DP  RH WIND       PRES   REMARKS
CARBONDALE     CLOUDY    42  23  46 SW6       30.31F
CAIRO*         CLOUDY    44  27  50 CALM      30.31F
EFFINGHAM*     CLOUDY    39  24  55 S5        30.31F
MARION         CLOUDY    45  25  45 S8        30.31F
MT. VERNON     CLOUDY    41  27  56 SW6       30.32F
CENTRALIA*     CLOUDY    40  25  56 S7        30.29F
SALEM*         CLOUDY    42  27  55 S7        30.30F
METROPOLIS*    CLOUDY    43  26  50 CALM      30.32F
$$

ILZ067-068-072-073-078-083-087-091-312000-
SOUTHEAST ILLINOIS

CITY           SKY/WX    TMP DP  RH WIND       PRES   REMARKS
LAWRENCEVILLE  CLOUDY    40  25  55 S8        30.32F
FLORA*         CLOUDY    40  29  64 S7        30.31F
FAIRFIELD*     CLOUDY    40  26  57 SW8       30.32S
HARRISBURG*    CLOUDY    41  25  53 CALM      30.34F
ROBINSON*      CLOUDY    39  27  60 SW7       30.31F WCI  34
CARMI*         CLOUDY    43  31  62 S12       30.34S
$$

ABBREVIATIONS USED IN REMARKS
   TC - TEMPERATURE IN CELSIUS
  WCI - WIND CHILL INDEX
   HX - HEAT INDEX
  VSB - VISIBILITY
$$




USA.gov is the U.S. government's official web portal to all federal, state and local government web resources and services.